TimeCST,TemperatureF,Dew PointF,Humidity,Sea Level PressureIn,VisibilityMPH,Wind Direction,Wind SpeedMPH,Gust SpeedMPH,PrecipitationIn,Events,Conditions,WindDirDegrees,DateUTC
12:38 AM,64.4,60.8,88,29.98,10.0,SSW,9.2,-,N/A,,Overcast,200,2013-01-12 06:38:00
12:52 AM,64.0,60.1,87,29.97,10.0,SSW,10.4,-,N/A,,Overcast,200,2013-01-12 06:52:00
1:52 AM,64.9,61.0,87,29.97,10.0,SSW,12.7,-,N/A,,Overcast,200,2013-01-12 07:52:00
2:47 AM,64.4,60.8,88,29.97,10.0,SSW,13.8,-,N/A,,Scattered Clouds,200,2013-01-12 08:47:00
2:52 AM,64.9,61.0,87,29.96,10.0,SSW,12.7,-,N/A,,Partly Cloudy,200,2013-01-12 08:52:00
3:52 AM,64.9,61.0,87,29.96,10.0,SSW,8.1,-,N/A,,Mostly Cloudy,210,2013-01-12 09:52:00
4:52 AM,64.9,62.1,90,29.96,10.0,South,5.8,-,N/A,,Mostly Cloudy,190,2013-01-12 10:52:00
5:52 AM,64.0,62.1,93,29.98,10.0,Calm,Calm,-,N/A,,Overcast,0,2013-01-12 11:52:00
6:39 AM,64.4,62.6,94,29.99,10.0,South,3.5,-,N/A,,Overcast,170,2013-01-12 12:39:00
6:52 AM,63.0,62.1,97,29.99,7.0,SE,3.5,-,0.00,Rain,Light Rain,140,2013-01-12 12:52:00
7:52 AM,64.0,63.0,96,30.00,6.0,Calm,Calm,-,0.00,,Overcast,0,2013-01-12 13:52:00
8:52 AM,64.9,63.0,93,30.00,10.0,SSE,6.9,-,N/A,,Overcast,160,2013-01-12 14:52:00
9:05 AM,66.2,64.4,94,30.00,10.0,SSE,6.9,-,N/A,,Mostly Cloudy,160,2013-01-12 15:05:00
9:17 AM,66.2,64.4,94,30.00,10.0,SSE,5.8,-,N/A,,Mostly Cloudy,150,2013-01-12 15:17:00
9:52 AM,66.0,64.0,93,29.99,10.0,SSE,6.9,-,N/A,,Overcast,150,2013-01-12 15:52:00
10:10 AM,66.2,64.4,94,29.99,10.0,SSE,8.1,-,N/A,,Overcast,150,2013-01-12 16:10:00
11:01 AM,66.2,64.4,94,29.98,10.0,SSE,3.5,-,N/A,,Overcast,160,2013-01-12 17:01:00
11:22 AM,66.2,64.4,94,29.98,10.0,SSE,3.5,-,N/A,,Overcast,160,2013-01-12 17:22:00
11:52 AM,66.9,64.9,93,29.95,2.5,SSE,4.6,-,0.02,Rain,Light Rain,160,2013-01-12 17:52:00
12:03 PM,66.2,64.4,94,29.95,8.0,SSE,4.6,-,0.01,Rain,Light Rain,150,2013-01-12 18:03:00
12:52 PM,68.0,64.9,90,29.92,10.0,SSE,5.8,-,0.01,,Overcast,160,2013-01-12 18:52:00
1:19 PM,68.0,64.4,88,29.91,10.0,South,6.9,-,N/A,,Overcast,170,2013-01-12 19:19:00
1:52 PM,68.0,63.0,84,29.89,10.0,SSE,11.5,18.4,0.00,,Mostly Cloudy,160,2013-01-12 19:52:00
2:02 PM,69.8,62.6,78,29.90,10.0,South,8.1,18.4,N/A,,Mostly Cloudy,170,2013-01-12 20:02:00
2:21 PM,69.8,62.6,78,29.91,10.0,South,10.4,-,N/A,,Mostly Cloudy,170,2013-01-12 20:21:00
2:52 PM,68.0,63.0,84,29.88,10.0,SSE,9.2,18.4,N/A,,Overcast,160,2013-01-12 20:52:00
3:28 PM,68.0,62.6,83,29.89,10.0,South,11.5,19.6,0.00,Rain,Light Rain,170,2013-01-12 21:28:00
3:52 PM,68.0,63.0,84,29.88,10.0,South,9.2,-,0.00,,Overcast,180,2013-01-12 21:52:00
4:52 PM,68.0,63.0,84,29.86,10.0,South,11.5,17.3,N/A,,Mostly Cloudy,170,2013-01-12 22:52:00
5:20 PM,68.0,62.6,83,29.87,10.0,South,8.1,-,N/A,,Overcast,170,2013-01-12 23:20:00
5:52 PM,68.0,63.0,84,29.85,10.0,South,8.1,-,N/A,,Overcast,170,2013-01-12 23:52:00
6:52 PM,68.0,63.0,84,29.84,10.0,South,10.4,21.9,N/A,,Scattered Clouds,170,2013-01-13 00:52:00
7:52 PM,69.1,63.0,81,29.83,10.0,South,11.5,20.7,N/A,,Overcast,170,2013-01-13 01:52:00
8:43 PM,69.8,62.6,78,29.83,10.0,South,12.7,23.0,N/A,,Overcast,170,2013-01-13 02:43:00
8:52 PM,69.1,62.1,78,29.81,10.0,South,11.5,24.2,N/A,,Overcast,170,2013-01-13 02:52:00
9:52 PM,69.1,61.0,75,29.81,10.0,South,15.0,20.7,N/A,,Overcast,180,2013-01-13 03:52:00
10:52 PM,70.0,61.0,73,29.80,10.0,South,16.1,-,N/A,,Overcast,180,2013-01-13 04:52:00
11:12 PM,69.8,60.8,73,29.80,10.0,South,19.6,28.8,N/A,,Overcast,180,2013-01-13 05:12:00
11:39 PM,69.8,60.8,73,29.80,10.0,South,18.4,25.3,N/A,,Overcast,190,2013-01-13 05:39:00
11:52 PM,69.1,61.0,75,29.79,9.0,South,13.8,23.0,N/A,,Overcast,180,2013-01-13 05:52:00